,,Stat6,,Stat2,,Stat8,,Stat9,,Stat10,,Wind1,,Wind1,
time,status,PA1M_AVG,status,PR1M_SUM,status,RH1M_AVG,status,SR1M_AVG,status,TA1M_AVG,status,W1dAve1m,status,W1sAve1m,
2006-01-11, 00:00:00,VALID,916.063,VALID,0,VALID,98.6396,VALID,0.135847,VALID,19.3518,VALID,89,VALID,0.738009,
2006-01-11, 00:01:00,VALID,916.046,VALID,0,VALID,98.6892,VALID,0.135847,VALID,19.3582,VALID,72,VALID,0.915879,
2006-01-11, 00:02:00,VALID,916.027,VALID,0,VALID,98.7668,VALID,0.118866,VALID,19.3617,VALID,73,VALID,0.220274,
2006-01-11, 00:03:00,VALID,916.024,VALID,0,VALID,98.8139,VALID,0.118866,VALID,19.3418,VALID,82,VALID,0.213601,
2006-01-11, 00:04:00,VALID,916.008,VALID,0,VALID,98.8406,VALID,0.101885,VALID,19.3388,VALID,113,VALID,0.366797,
2006-01-11, 00:05:00,VALID,915.97,VALID,0,VALID,98.9092,VALID,0.101885,VALID,19.3493,VALID,140,VALID,0.674964,
2006-01-11, 00:06:00,VALID,915.965,VALID,0,VALID,98.9308,VALID,0.118866,VALID,19.3289,VALID,153,VALID,0.863467,
2006-01-11, 00:07:00,VALID,915.971,VALID,0,VALID,98.9792,VALID,0.0849042,VALID,19.3326,VALID,139,VALID,0.436738,
2006-01-11, 00:08:00,VALID,915.977,VALID,0,VALID,99.1127,VALID,0.118866,VALID,19.3393,VALID,134,VALID,0.77691,
2006-01-11, 00:09:00,VALID,915.964,VALID,0,VALID,99.1483,VALID,0.101885,VALID,19.3236,VALID,137,VALID,0.887536,
2006-01-11, 00:10:00,VALID,915.943,VALID,0,VALID,99.1826,VALID,0.101885,VALID,19.3072,VALID,139,VALID,0.406822,
2006-01-11, 00:11:00,VALID,915.922,VALID,0,VALID,99.2119,VALID,0.101885,VALID,19.2874,VALID,133,VALID,0.818452,
2006-01-11, 00:12:00,VALID,915.936,VALID,0,VALID,99.3225,VALID,0.118866,VALID,19.2973,VALID,108,VALID,0.669643,
2006-01-11, 00:13:00,VALID,915.932,VALID,0,VALID,99.4306,VALID,0.118866,VALID,19.2906,VALID,79,VALID,0.946243,
2006-01-11, 00:14:00,VALID,915.922,VALID,0,VALID,99.47,VALID,0.0849042,VALID,19.2913,VALID,97,VALID,1.14807,
2006-01-11, 00:15:00,VALID,915.899,VALID,0,VALID,99.4929,VALID,0.0849042,VALID,19.2779,VALID,125,VALID,1.23892,
2006-01-11, 00:16:00,VALID,915.87,VALID,0,VALID,99.5247,VALID,0.0509425,VALID,19.2714,VALID,123,VALID,0.738554,
2006-01-11, 00:17:00,VALID,915.843,VALID,0,VALID,99.4598,VALID,0.0679233,VALID,19.258,VALID,130,VALID,0.701853,
2006-01-11, 00:18:00,VALID,915.811,VALID,0,VALID,99.4522,VALID,0.0339617,VALID,19.2784,VALID,121,VALID,0.523247,
2006-01-11, 00:19:00,VALID,915.782,VALID,0,VALID,99.3784,VALID,0.0339617,VALID,19.2712,VALID,104,VALID,0.785156,
2006-01-11, 00:20:00,VALID,915.764,VALID,0,VALID,99.3352,VALID,0.0679233,VALID,19.2878,VALID,87,VALID,0.788872,
2006-01-11, 00:21:00,VALID,915.736,VALID,0,VALID,99.3899,VALID,0.0339617,VALID,19.2906,VALID,68,VALID,0.560023,
2006-01-11, 00:22:00,VALID,915.705,VALID,0,VALID,99.2462,VALID,0,VALID,19.3005,VALID,70,VALID,0.694404,
2006-01-11, 00:23:00,VALID,915.701,VALID,0,VALID,99.1178,VALID,0.0169808,VALID,19.3038,VALID,94,VALID,0.700107,
2006-01-11, 00:24:00,VALID,915.67,VALID,0,VALID,99.1139,VALID,0.0169808,VALID,19.3266,VALID,105,VALID,0.670313,
2006-01-11, 00:25:00,VALID,915.651,VALID,0,VALID,99.1661,VALID,0.0169808,VALID,19.3202,VALID,102,VALID,0.408482,
2006-01-11, 00:26:00,VALID,915.648,VALID,0,VALID,99.1483,VALID,0.0169808,VALID,19.3137,VALID,103,VALID,0.761018,
2006-01-11, 00:27:00,VALID,915.62,VALID,0,VALID,99.1572,VALID,0.0339617,VALID,19.3137,VALID,101,VALID,0.659702,
2006-01-11, 00:28:00,VALID,915.584,VALID,0,VALID,99.1368,VALID,0.0169808,VALID,19.2936,VALID,107,VALID,0.494792,
2006-01-11, 00:29:00,VALID,915.603,VALID,0.2,VALID,99.1432,VALID,0.0169808,VALID,19.3202,VALID,104,VALID,0.292683,
2006-01-11, 00:30:00,VALID,915.596,VALID,0,VALID,99.1674,VALID,0.0339617,VALID,19.3234,VALID,91,VALID,0.488917,
2006-01-11, 00:31:00,VALID,915.572,VALID,0,VALID,99.0949,VALID,0.0339617,VALID,19.3259,VALID,124,VALID,0.392624,
2006-01-11, 00:32:00,VALID,915.564,VALID,0,VALID,99.1165,VALID,0.0339617,VALID,19.3363,VALID,120,VALID,0.003125,
2006-01-11, 00:33:00,VALID,915.558,VALID,0,VALID,99.2564,VALID,0,VALID,19.3525,VALID,120,VALID,0.163491,
2006-01-11, 00:34:00,VALID,915.551,VALID,0,VALID,99.3021,VALID,0.0679233,VALID,19.3786,VALID,120,VALID,0.00721154,
2006-01-11, 00:35:00,VALID,915.55,VALID,0,VALID,99.2932,VALID,0.0679233,VALID,19.3843,VALID,120,VALID,0.172965,
2006-01-11, 00:36:00,VALID,915.555,VALID,0,VALID,99.1305,VALID,0.152827,VALID,19.367,VALID,116,VALID,0.475074,
2006-01-11, 00:37:00,VALID,915.543,VALID,0,VALID,99.0173,VALID,0.135847,VALID,19.3642,VALID,138,VALID,0.516533,
2006-01-11, 00:38:00,VALID,915.537,VALID,0,VALID,99.03,VALID,0.152827,VALID,19.3642,VALID,142,VALID,0.153274,
2006-01-11, 00:39:00,VALID,915.548,VALID,0,VALID,99.03,VALID,0.186789,VALID,19.354,VALID,142,VALID,0.118459,
2006-01-11, 00:40:00,VALID,915.548,VALID,0,VALID,99.105,VALID,0.135847,VALID,19.3413,VALID,142,VALID,0.148628,
2006-01-11, 00:41:00,VALID,915.533,VALID,0,VALID,99.1788,VALID,0.135847,VALID,19.3376,VALID,142,VALID,0.0608648,
2006-01-11, 00:42:00,VALID,915.521,VALID,0,VALID,99.1394,VALID,0.152827,VALID,19.3351,VALID,141,VALID,0.631288,
2006-01-11, 00:43:00,VALID,915.519,VALID,0,VALID,99.222,VALID,0.135847,VALID,19.3219,VALID,142,VALID,0.120458,
2006-01-11, 00:44:00,VALID,915.512,VALID,0,VALID,99.2551,VALID,0.135847,VALID,19.3222,VALID,160,VALID,0.618608,
2006-01-11, 00:45:00,VALID,915.492,VALID,0,VALID,99.2017,VALID,0.152827,VALID,19.3021,VALID,173,VALID,0.539444,
2006-01-11, 00:46:00,VALID,915.469,VALID,0,VALID,99.2475,VALID,0.135847,VALID,19.3028,VALID,191,VALID,0.72017,
2006-01-11, 00:47:00,VALID,915.441,VALID,0,VALID,99.1979,VALID,0.152827,VALID,19.3055,VALID,198,VALID,0.771151,
2006-01-11, 00:48:00,VALID,915.435,VALID,0,VALID,99.1661,VALID,0.135847,VALID,19.3122,VALID,175,VALID,0.831473,
2006-01-11, 00:49:00,VALID,915.446,VALID,0,VALID,99.2424,VALID,0.135847,VALID,19.3122,VALID,159,VALID,0.43657,
2006-01-11, 00:50:00,VALID,915.442,VALID,0,VALID,99.3009,VALID,0.118866,VALID,19.316,VALID,150,VALID,0.606771,
2006-01-11, 00:51:00,VALID,915.448,VALID,0,VALID,99.3021,VALID,0.0849042,VALID,19.2975,VALID,140,VALID,0.858285,
2006-01-11, 00:52:00,VALID,915.445,VALID,0,VALID,99.3797,VALID,0.0679233,VALID,19.301,VALID,153,VALID,0.758557,
2006-01-11, 00:53:00,VALID,915.437,VALID,0,VALID,99.3517,VALID,0.0849042,VALID,19.2849,VALID,159,VALID,0.878534,
2006-01-11, 00:54:00,VALID,915.43,VALID,0,VALID,99.4001,VALID,0.0509425,VALID,19.2781,VALID,164,VALID,0.617932,
2006-01-11, 00:55:00,VALID,915.42,VALID,0,VALID,99.4255,VALID,0.0679233,VALID,19.2816,VALID,165,VALID,0.709375,
2006-01-11, 00:56:00,VALID,915.411,VALID,0,VALID,99.4675,VALID,0.101885,VALID,19.265,VALID,171,VALID,0.654652,
2006-01-11, 00:57:00,VALID,915.392,VALID,0,VALID,99.5272,VALID,0.0679233,VALID,19.2615,VALID,172,VALID,0.877486,
2006-01-11, 00:58:00,VALID,915.393,VALID,0,VALID,99.5895,VALID,0.0849042,VALID,19.2657,VALID,166,VALID,0.55971,
2006-01-11, 00:59:00,VALID,915.389,VALID,0,VALID,99.6862,VALID,0.0849042,VALID,19.2421,VALID,153,VALID,1.02471,
2006-01-11, 01:00:00,VALID,915.395,VALID,0,VALID,99.7892,VALID,0.101885,VALID,19.2426,VALID,148,VALID,0.961682,
2006-01-11, 01:01:00,VALID,915.388,VALID,0,VALID,99.8566,VALID,0.101885,VALID,19.2426,VALID,150,VALID,0.889695,
2006-01-11, 01:02:00,VALID,915.371,VALID,0,VALID,99.8629,VALID,0.101885,VALID,19.2229,VALID,142,VALID,0.822574,
2006-01-11, 01:03:00,VALID,915.36,VALID,0,VALID,99.9278,VALID,0.101885,VALID,19.2227,VALID,156,VALID,0.843006,
2006-01-11, 01:04:00,VALID,915.339,VALID,0,VALID,99.957,VALID,0.0849042,VALID,19.2162,VALID,157,VALID,0.583212,
2006-01-11, 01:05:00,VALID,915.346,VALID,0,VALID,99.924,VALID,0.0849042,VALID,19.21,VALID,165,VALID,0.808789,
2006-01-11, 01:06:00,VALID,915.339,VALID,0,VALID,99.8858,VALID,0.118866,VALID,19.2202,VALID,170,VALID,0.704484,
2006-01-11, 01:07:00,VALID,915.342,VALID,0,VALID,99.8909,VALID,0.0849042,VALID,19.217,VALID,161,VALID,0.377604,
2006-01-11, 01:08:00,VALID,915.332,VALID,0,VALID,99.8998,VALID,0.135847,VALID,19.2299,VALID,150,VALID,0.613982,
2006-01-11, 01:09:00,VALID,915.302,VALID,0,VALID,99.9087,VALID,0.0849042,VALID,19.22,VALID,151,VALID,0.683771,
2006-01-11, 01:10:00,VALID,915.293,VALID,0,VALID,99.8795,VALID,0.118866,VALID,19.2264,VALID,154,VALID,0.928052,
2006-01-11, 01:11:00,VALID,915.288,VALID,0,VALID,99.8133,VALID,0.101885,VALID,19.2202,VALID,147,VALID,1.10078,
2006-01-11, 01:12:00,VALID,915.283,VALID,0,VALID,99.8146,VALID,0.118866,VALID,19.2234,VALID,146,VALID,0.623001,
2006-01-11, 01:13:00,VALID,915.278,VALID,0,VALID,99.8604,VALID,0.101885,VALID,19.2267,VALID,148,VALID,0.61452,
2006-01-11, 01:14:00,VALID,915.254,VALID,0,VALID,99.8337,VALID,0.101885,VALID,19.2394,VALID,145,VALID,1.10423,
2006-01-11, 01:15:00,VALID,915.241,VALID,0,VALID,99.7943,VALID,0.118866,VALID,19.2324,VALID,147,VALID,1.33398,
2006-01-11, 01:16:00,VALID,915.209,VALID,0,VALID,99.7828,VALID,0.101885,VALID,19.2361,VALID,140,VALID,1.23533,
2006-01-11, 01:17:00,VALID,915.196,VALID,0,VALID,99.7612,VALID,0.118866,VALID,19.2398,VALID,142,VALID,1.20252,
2006-01-11, 01:18:00,VALID,915.196,VALID,0,VALID,99.704,VALID,0.118866,VALID,19.2463,VALID,135,VALID,1.53516,
2006-01-11, 01:19:00,VALID,915.169,VALID,0,VALID,99.6824,VALID,0.118866,VALID,19.2428,VALID,139,VALID,1.45693,
2006-01-11, 01:20:00,VALID,915.155,VALID,0,VALID,99.6684,VALID,0.135847,VALID,19.2493,VALID,139,VALID,1.67063,
2006-01-11, 01:21:00,VALID,915.128,VALID,0,VALID,99.5908,VALID,0.118866,VALID,19.2493,VALID,136,VALID,1.72798,
2006-01-11, 01:22:00,VALID,915.107,VALID,0,VALID,99.5132,VALID,0.101885,VALID,19.2453,VALID,135,VALID,1.79119,
2006-01-11, 01:23:00,VALID,915.093,VALID,0,VALID,99.5069,VALID,0.135847,VALID,19.2488,VALID,138,VALID,1.75521,
2006-01-11, 01:24:00,VALID,915.085,VALID,0,VALID,99.5107,VALID,0.169808,VALID,19.2548,VALID,132,VALID,1.36226,
2006-01-11, 01:25:00,VALID,915.086,VALID,0,VALID,99.5666,VALID,0.101885,VALID,19.255,VALID,132,VALID,1.04358,
2006-01-11, 01:26:00,VALID,915.07,VALID,0,VALID,99.6417,VALID,0.152827,VALID,19.262,VALID,134,VALID,1.29869,
2006-01-11, 01:27:00,VALID,915.066,VALID,0,VALID,99.7154,VALID,0.118866,VALID,19.2458,VALID,137,VALID,1.02575,
2006-01-11, 01:28:00,VALID,915.072,VALID,0,VALID,99.7752,VALID,0.118866,VALID,19.2361,VALID,127,VALID,1.04031,
2006-01-11, 01:29:00,VALID,915.057,VALID,0,VALID,99.8235,VALID,0.135847,VALID,19.2364,VALID,142,VALID,1.05412,
2006-01-11, 01:30:00,VALID,915.052,VALID,0,VALID,99.8337,VALID,0.118866,VALID,19.2264,VALID,136,VALID,1.13145,
2006-01-11, 01:31:00,VALID,915.031,VALID,0,VALID,99.8235,VALID,0.118866,VALID,19.2262,VALID,112,VALID,0.81141,
2006-01-11, 01:32:00,VALID,915.021,VALID,0,VALID,99.8337,VALID,0.135847,VALID,19.2326,VALID,115,VALID,1.13095,
2006-01-11, 01:33:00,VALID,914.988,VALID,0,VALID,99.882,VALID,0.118866,VALID,19.2359,VALID,108,VALID,1.23647,
2006-01-11, 01:34:00,VALID,914.958,VALID,0,VALID,99.9112,VALID,0.135847,VALID,19.2359,VALID,115,VALID,0.698765,
2006-01-11, 01:35:00,VALID,914.923,VALID,0,VALID,99.9685,VALID,0.118866,VALID,19.2356,VALID,104,VALID,0.664595,
2006-01-11, 01:36:00,VALID,914.916,VALID,0,VALID,100,VALID,0.118866,VALID,19.2259,VALID,115,VALID,0.50372,
2006-01-11, 01:37:00,VALID,914.909,VALID,0,VALID,100,VALID,0.135847,VALID,19.2264,VALID,155,VALID,0.528525,
2006-01-11, 01:38:00,VALID,914.904,VALID,0,VALID,100,VALID,0.101885,VALID,19.213,VALID,75,VALID,0.45846,
2006-01-11, 01:39:00,VALID,914.882,VALID,0,VALID,100,VALID,0.118866,VALID,19.2137,VALID,120,VALID,0.803234,
2006-01-11, 01:40:00,VALID,914.866,VALID,0,VALID,100,VALID,0.135847,VALID,19.1973,VALID,100,VALID,1.09394,
2006-01-11, 01:41:00,VALID,914.854,VALID,0,VALID,100,VALID,0.135847,VALID,19.1779,VALID,96,VALID,1.01217,
2006-01-11, 01:42:00,VALID,914.849,VALID,0,VALID,100,VALID,0.152827,VALID,19.1712,VALID,96,VALID,1.11024,
2006-01-11, 01:43:00,VALID,914.841,VALID,0,VALID,100,VALID,0.118866,VALID,19.165,VALID,96,VALID,1.06211,
2006-01-11, 01:44:00,VALID,914.826,VALID,0,VALID,100,VALID,0.152827,VALID,19.1516,VALID,90,VALID,0.992914,
2006-01-11, 01:45:00,VALID,914.807,VALID,0,VALID,100,VALID,0.101885,VALID,19.1618,VALID,95,VALID,1.05371,
2006-01-11, 01:46:00,VALID,914.8,VALID,0,VALID,100,VALID,0.186789,VALID,19.1578,VALID,133,VALID,0.664474,
2006-01-11, 01:47:00,VALID,914.78,VALID,0,VALID,100,VALID,0.118866,VALID,19.1576,VALID,106,VALID,1.00495,
2006-01-11, 01:48:00,VALID,914.775,VALID,0,VALID,100,VALID,0.152827,VALID,19.1543,VALID,118,VALID,0.690848,
2006-01-11, 01:49:00,VALID,914.758,VALID,0,VALID,100,VALID,0.135847,VALID,19.1548,VALID,115,VALID,0.682292,
2006-01-11, 01:50:00,VALID,914.748,VALID,0,VALID,100,VALID,0.135847,VALID,19.162,VALID,141,VALID,1.44622,
2006-01-11, 01:51:00,VALID,914.741,VALID,0,VALID,100,VALID,0.101885,VALID,19.1488,VALID,131,VALID,1.04135,
2006-01-11, 01:52:00,VALID,914.747,VALID,0,VALID,100,VALID,0.101885,VALID,19.1488,VALID,140,VALID,1.16761,
2006-01-11, 01:53:00,VALID,914.732,VALID,0,VALID,100,VALID,0.101885,VALID,19.1463,VALID,134,VALID,1.28006,
2006-01-11, 01:54:00,VALID,914.71,VALID,0,VALID,100,VALID,0.118866,VALID,19.1491,VALID,124,VALID,0.824695,
2006-01-11, 01:55:00,VALID,914.694,VALID,0,VALID,100,VALID,0.152827,VALID,19.1454,VALID,148,VALID,0.811592,
2006-01-11, 01:56:00,VALID,914.683,VALID,0,VALID,100,VALID,0.0849042,VALID,19.1389,VALID,139,VALID,1.0666,
2006-01-11, 01:57:00,VALID,914.669,VALID,0,VALID,100,VALID,0.101885,VALID,19.1389,VALID,143,VALID,1.00071,
2006-01-11, 01:58:00,VALID,914.662,VALID,0,VALID,100,VALID,0.101885,VALID,19.1421,VALID,146,VALID,1.28869,
2006-01-11, 01:59:00,VALID,914.651,VALID,0,VALID,100,VALID,0.101885,VALID,19.1523,VALID,142,VALID,1.34661,
2006-01-11, 02:00:00,VALID,914.645,VALID,0,VALID,100,VALID,0.118866,VALID,19.1613,VALID,130,VALID,1.04355,
2006-01-11, 02:01:00,VALID,914.64,VALID,0,VALID,100,VALID,0.118866,VALID,19.165,VALID,131,VALID,0.945499,
2006-01-11, 02:02:00,VALID,914.611,VALID,0,VALID,100,VALID,0.101885,VALID,19.1682,VALID,135,VALID,0.553977,
2006-01-11, 02:03:00,VALID,914.599,VALID,0,VALID,100,VALID,0.118866,VALID,19.165,VALID,110,VALID,0.420847,
2006-01-11, 02:04:00,VALID,914.567,VALID,0,VALID,100,VALID,0.118866,VALID,19.1777,VALID,101,VALID,0.499238,
2006-01-11, 02:05:00,VALID,914.561,VALID,0,VALID,100,VALID,0.135847,VALID,19.1742,VALID,116,VALID,0.718387,
2006-01-11, 02:06:00,VALID,914.562,VALID,0,VALID,100,VALID,0.135847,VALID,19.1904,VALID,89,VALID,1.03348,
2006-01-11, 02:07:00,VALID,914.543,VALID,0,VALID,99.9964,VALID,0.101885,VALID,19.1971,VALID,86,VALID,0.889236,
2006-01-11, 02:08:00,VALID,914.531,VALID,0,VALID,99.943,VALID,0.118866,VALID,19.1869,VALID,105,VALID,0.785065,
2006-01-11, 02:09:00,VALID,914.51,VALID,0,VALID,99.8591,VALID,0.118866,VALID,19.1966,VALID,99,VALID,1.3332,
2006-01-11, 02:10:00,VALID,914.495,VALID,0,VALID,99.7879,VALID,0.169808,VALID,19.2165,VALID,95,VALID,1.46522,
2006-01-11, 02:11:00,VALID,914.475,VALID,0,VALID,99.6976,VALID,0.101885,VALID,19.2095,VALID,98,VALID,1.23065,
2006-01-11, 02:12:00,VALID,914.455,VALID,0,VALID,99.6773,VALID,0.135847,VALID,19.2229,VALID,95,VALID,1.17206,
2006-01-11, 02:13:00,VALID,914.431,VALID,0,VALID,99.6429,VALID,0.101885,VALID,19.2162,VALID,104,VALID,1.39663,
2006-01-11, 02:14:00,VALID,914.409,VALID,0,VALID,99.6518,VALID,0.135847,VALID,19.2229,VALID,103,VALID,0.911644,
2006-01-11, 02:15:00,VALID,914.403,VALID,0,VALID,99.6531,VALID,0.135847,VALID,19.2132,VALID,102,VALID,0.962358,
2006-01-11, 02:16:00,VALID,914.392,VALID,0,VALID,99.6646,VALID,0.118866,VALID,19.213,VALID,108,VALID,0.918555,
2006-01-11, 02:17:00,VALID,914.385,VALID,0,VALID,99.6862,VALID,0.101885,VALID,19.2132,VALID,107,VALID,1.17778,
2006-01-11, 02:18:00,VALID,914.395,VALID,0,VALID,99.7002,VALID,0.135847,VALID,19.2033,VALID,102,VALID,1.27344,
2006-01-11, 02:19:00,VALID,914.38,VALID,0,VALID,99.7154,VALID,0.135847,VALID,19.2003,VALID,108,VALID,1.53245,
2006-01-11, 02:20:00,VALID,914.374,VALID,0,VALID,99.7675,VALID,0.152827,VALID,19.1941,VALID,99,VALID,1.33365,
2006-01-11, 02:21:00,VALID,914.361,VALID,0,VALID,99.8337,VALID,0.0849042,VALID,19.1849,VALID,109,VALID,0.724609,
2006-01-11, 02:22:00,VALID,914.326,VALID,0,VALID,99.9278,VALID,0.0849042,VALID,19.1854,VALID,108,VALID,1.31996,
2006-01-11, 02:23:00,VALID,914.31,VALID,0,VALID,99.9865,VALID,0.0339617,VALID,19.1719,VALID,125,VALID,0.762173,
2006-01-11, 02:24:00,VALID,914.314,VALID,0,VALID,100,VALID,0.0679233,VALID,19.1662,VALID,132,VALID,0.376272,
2006-01-11, 02:25:00,VALID,914.317,VALID,0,VALID,100,VALID,0.101885,VALID,19.1595,VALID,142,VALID,1.0638,
2006-01-11, 02:26:00,VALID,914.304,VALID,0,VALID,100,VALID,0.0849042,VALID,19.1538,VALID,159,VALID,0.684261,
2006-01-11, 02:27:00,VALID,914.292,VALID,0,VALID,100,VALID,0.0679233,VALID,19.1533,VALID,155,VALID,0.582919,
2006-01-11, 02:28:00,VALID,914.281,VALID,0,VALID,100,VALID,0.0679233,VALID,19.1299,VALID,167,VALID,0.164621,
2006-01-11, 02:29:00,VALID,914.266,VALID,0,VALID,100,VALID,0.0679233,VALID,19.1403,VALID,135,VALID,0.491279,
2006-01-11, 02:30:00,VALID,914.255,VALID,0,VALID,100,VALID,0.0849042,VALID,19.1401,VALID,147,VALID,0.562686,
2006-01-11, 02:31:00,VALID,914.241,VALID,0,VALID,100,VALID,0.0509425,VALID,19.1334,VALID,143,VALID,0.742006,
2006-01-11, 02:32:00,VALID,914.222,VALID,0,VALID,100,VALID,0.0679233,VALID,19.1297,VALID,165,VALID,0.6873,
2006-01-11, 02:33:00,VALID,914.222,VALID,0,VALID,100,VALID,0.0339617,VALID,19.1468,VALID,169,VALID,0.429324,
2006-01-11, 02:34:00,VALID,914.207,VALID,0,VALID,100,VALID,0.0679233,VALID,19.1463,VALID,195,VALID,0.448661,
2006-01-11, 02:35:00,VALID,914.202,VALID,0,VALID,99.9893,VALID,0.0849042,VALID,19.153,VALID,161,VALID,0.889672,
2006-01-11, 02:36:00,VALID,914.196,VALID,0,VALID,99.8947,VALID,0.0339617,VALID,19.1533,VALID,121,VALID,0.708203,
2006-01-11, 02:37:00,VALID,914.183,VALID,0,VALID,99.8718,VALID,0.0339617,VALID,19.1496,VALID,118,VALID,0.0870028,
2006-01-11, 02:38:00,VALID,914.198,VALID,0,VALID,99.8413,VALID,0.0509425,VALID,19.166,VALID,156,VALID,0.523983,
2006-01-11, 02:39:00,VALID,914.195,VALID,0,VALID,99.8044,VALID,0.0169808,VALID,19.1724,VALID,160,VALID,0.437847,
2006-01-11, 02:40:00,VALID,914.193,VALID,0,VALID,99.7904,VALID,0.0679233,VALID,19.1719,VALID,164,VALID,0.59654,
2006-01-11, 02:41:00,VALID,914.193,VALID,0,VALID,99.7701,VALID,0.0339617,VALID,19.1757,VALID,216,VALID,0.546684,
2006-01-11, 02:42:00,VALID,914.197,VALID,0,VALID,99.9575,VALID,0.0509425,VALID,19.166,VALID,251,VALID,0.685724,
2006-01-11, 02:43:00,VALID,914.193,VALID,0,VALID,100,VALID,0.0509425,VALID,19.1473,VALID,257,VALID,0.480469,
2006-01-11, 02:44:00,VALID,914.194,VALID,0,VALID,100,VALID,0.0169808,VALID,19.1276,VALID,264,VALID,0.680398,
2006-01-11, 02:45:00,VALID,914.2,VALID,0,VALID,100,VALID,0.0339617,VALID,19.0854,VALID,264,VALID,0.34282,
2006-01-11, 02:46:00,VALID,914.19,VALID,0,VALID,100,VALID,0,VALID,19.0553,VALID,255,VALID,0.324113,
2006-01-11, 02:47:00,VALID,914.176,VALID,0,VALID,100,VALID,0.0339617,VALID,19.0498,VALID,243,VALID,0.433685,
2006-01-11, 02:48:00,VALID,914.157,VALID,0,VALID,100,VALID,0.0849042,VALID,19.0466,VALID,215,VALID,0.369792,
2006-01-11, 02:49:00,VALID,914.148,VALID,0,VALID,100,VALID,0.0339617,VALID,19.0302,VALID,181,VALID,0.171875,
2006-01-11, 02:50:00,VALID,914.154,VALID,0,VALID,100,VALID,0.135847,VALID,19.023,VALID,181,VALID,0,
2006-01-11, 02:51:00,VALID,914.142,VALID,0,VALID,100,VALID,0.169808,VALID,19.0158,VALID,181,VALID,0.169829,
2006-01-11, 02:52:00,VALID,914.132,VALID,0,VALID,100,VALID,0.135847,VALID,18.9997,VALID,151,VALID,0.282422,
2006-01-11, 02:53:00,VALID,914.117,VALID,0,VALID,100,VALID,0.186789,VALID,18.9932,VALID,126,VALID,0.441315,
2006-01-11, 02:54:00,VALID,914.099,VALID,0,VALID,100,VALID,0.118866,VALID,19.0001,VALID,125,VALID,0.09375,
2006-01-11, 02:55:00,VALID,914.101,VALID,0,VALID,100,VALID,0.135847,VALID,19.0066,VALID,123,VALID,0.131055,
2006-01-11, 02:56:00,VALID,914.105,VALID,0,VALID,100,VALID,0.118866,VALID,18.9997,VALID,112,VALID,0.108103,
2006-01-11, 02:57:00,VALID,914.102,VALID,0,VALID,100,VALID,0.135847,VALID,19.0093,VALID,112,VALID,0.239211,
2006-01-11, 02:58:00,VALID,914.074,VALID,0,VALID,100,VALID,0.101885,VALID,19.0161,VALID,112,VALID,0.239784,
2006-01-11, 02:59:00,VALID,914.064,VALID,0,VALID,100,VALID,0.101885,VALID,19.0352,VALID,112,VALID,0.0163517,
2006-01-11, 03:00:00,VALID,914.044,VALID,0,VALID,100,VALID,0.152827,VALID,19.068,VALID,112,VALID,0.0859375,
2006-01-11, 03:01:00,VALID,914.035,VALID,0,VALID,100,VALID,0.118866,VALID,19.1033,VALID,196,VALID,0.461301,
2006-01-11, 03:02:00,VALID,914.044,VALID,0,VALID,100,VALID,0.135847,VALID,19.1357,VALID,216,VALID,0.147294,
2006-01-11, 03:03:00,VALID,914.071,VALID,0,VALID,99.9733,VALID,0.169808,VALID,19.1352,VALID,216,VALID,0,
2006-01-11, 03:04:00,VALID,914.086,VALID,0,VALID,99.9756,VALID,0.135847,VALID,19.1551,VALID,215,VALID,0.276563,
2006-01-11, 03:05:00,VALID,914.081,VALID,0,VALID,99.8527,VALID,0.152827,VALID,19.161,VALID,139,VALID,0.67294,
2006-01-11, 03:06:00,VALID,914.077,VALID,0,VALID,99.5832,VALID,0.152827,VALID,19.1516,VALID,107,VALID,0.395389,
2006-01-11, 03:07:00,VALID,914.081,VALID,0,VALID,99.4433,VALID,0.135847,VALID,19.1513,VALID,116,VALID,0.654297,
2006-01-11, 03:08:00,VALID,914.061,VALID,0,VALID,99.4115,VALID,0.169808,VALID,19.1583,VALID,124,VALID,0.60404,
2006-01-11, 03:09:00,VALID,914.049,VALID,0,VALID,99.3988,VALID,0.152827,VALID,19.1546,VALID,111,VALID,0.728379,
2006-01-11, 03:10:00,VALID,914.042,VALID,0,VALID,99.3835,VALID,0.118866,VALID,19.1814,VALID,119,VALID,0.643111,
2006-01-11, 03:11:00,VALID,914.056,VALID,0,VALID,99.3988,VALID,0.135847,VALID,19.1812,VALID,127,VALID,0.578125,
2006-01-11, 03:12:00,VALID,914.063,VALID,0,VALID,99.3695,VALID,0.135847,VALID,19.1809,VALID,109,VALID,0.770089,
2006-01-11, 03:13:00,VALID,914.056,VALID,0,VALID,99.3912,VALID,0.118866,VALID,19.1876,VALID,105,VALID,1.35547,
2006-01-11, 03:14:00,VALID,914.055,VALID,0,VALID,99.4306,VALID,0.118866,VALID,19.1774,VALID,97,VALID,1.34844,
2006-01-11, 03:15:00,VALID,914.05,VALID,0,VALID,99.5221,VALID,0.101885,VALID,19.1812,VALID,91,VALID,1.36392,
2006-01-11, 03:16:00,VALID,914.03,VALID,0,VALID,99.6022,VALID,0.118866,VALID,19.1807,VALID,103,VALID,1.32113,
2006-01-11, 03:17:00,VALID,914.03,VALID,0,VALID,99.6874,VALID,0.135847,VALID,19.1777,VALID,102,VALID,1.44513,
2006-01-11, 03:18:00,VALID,914.018,VALID,0,VALID,99.7459,VALID,0.118866,VALID,19.1712,VALID,98,VALID,1.45313,
2006-01-11, 03:19:00,VALID,914.004,VALID,0,VALID,99.7866,VALID,0.101885,VALID,19.1779,VALID,103,VALID,1.61031,
2006-01-11, 03:20:00,VALID,913.978,VALID,0,VALID,99.8057,VALID,0.0849042,VALID,19.1754,VALID,109,VALID,1.45406,
2006-01-11, 03:21:00,VALID,913.987,VALID,0,VALID,99.8375,VALID,0.0339617,VALID,19.169,VALID,109,VALID,1.02559,
2006-01-11, 03:22:00,VALID,913.993,VALID,0,VALID,99.8655,VALID,0.0169808,VALID,19.1794,VALID,98,VALID,1.67387,
2006-01-11, 03:23:00,VALID,914.005,VALID,0,VALID,99.91,VALID,0.0169808,VALID,19.1729,VALID,100,VALID,1.44159,
2006-01-11, 03:24:00,VALID,914.02,VALID,0,VALID,99.9969,VALID,0,VALID,19.1794,VALID,94,VALID,1.13401,
2006-01-11, 03:25:00,VALID,914.018,VALID,0,VALID,99.9952,VALID,0,VALID,19.1692,VALID,101,VALID,1.30105,
2006-01-11, 03:26:00,VALID,914.015,VALID,0,VALID,100,VALID,0.0339617,VALID,19.1567,VALID,92,VALID,1.08761,
2006-01-11, 03:27:00,VALID,914.021,VALID,0,VALID,100,VALID,0.0509425,VALID,19.1563,VALID,82,VALID,0.671693,
2006-01-11, 03:28:00,VALID,914.015,VALID,0,VALID,100,VALID,-0.0169808,VALID,19.16,VALID,75,VALID,1.05554,
2006-01-11, 03:29:00,VALID,914.016,VALID,0,VALID,100,VALID,0.0169808,VALID,19.1702,VALID,56,VALID,0.880526,
2006-01-11, 03:30:00,VALID,914.022,VALID,0,VALID,99.9906,VALID,0.0339617,VALID,19.1565,VALID,80,VALID,1.25488,
2006-01-11, 03:31:00,VALID,914.007,VALID,0,VALID,99.9023,VALID,0.0169808,VALID,19.15,VALID,102,VALID,1.15358,
2006-01-11, 03:32:00,VALID,914.017,VALID,0,VALID,99.8591,VALID,0.0509425,VALID,19.1528,VALID,94,VALID,0.827324,
2006-01-11, 03:33:00,VALID,914.016,VALID,0,VALID,99.8337,VALID,0.0169808,VALID,19.1625,VALID,96,VALID,0.837209,
2006-01-11, 03:34:00,VALID,914.026,VALID,0,VALID,99.8082,VALID,0.0339617,VALID,19.166,VALID,108,VALID,1.01023,
2006-01-11, 03:35:00,VALID,914.004,VALID,0,VALID,99.8642,VALID,0.101885,VALID,19.1717,VALID,112,VALID,0.546165,